Tracking 19245 objects as of 17-Aug-2018
HD Live streaming from Space Station
objects crossing your sky now

FENGYUN 1C DEB

Track FENGYUN 1C DEB now!
10-day predictions


NORAD ID: 31887
Int'l Code: 1999-025CKN
Perigee: 761.2 km
Apogee: 812.1 km
Inclination: 99.5 °
Period: 100.4 minutes
Semi major axis: 7157 km
RCS: 0.0075 m2 (small)
Launch date: May 10, 1999
Source: People's Republic of China (PRC)
Launch site: Taiyaun Space Center, China (TSC)

Note: This is SATELLITE DEBRIS
aabbcc
Your satellite tracking list
Your tracking list is empty




NASA's NSSDC Master Catalog

Two Line Element Set (TLE):
1 31887U 99025CKN 18228.08083602  .00000281  00000-0  11932-3 0  9990
2 31887  99.5346 302.6817 0035558 169.8097 307.6426 14.33666863581871
Source of the keplerian elements: AFSPC